This is the latest recevied weather packets stored in our database for station/object I1SXT-13. If no packets are shown the sender has not sent any weather packets the latest 10 day(s).
| Time | Temp. | Humidity | Pressure | Rain* | Wind** | Luminosity | Snow |
|---|---|---|---|---|---|---|---|
| 1777949966 | 13.33° C | 93% | 1012.9 hPa | 5.59 mm | - | - | - |
| 1777949068 | 13.33° C | 92% | 1013.9 hPa | 4.32 mm | - | - | - |
| 1777948763 | 13.33° C | 93% | 1014 hPa | 3.81 mm | - | - | - |
| 1777948466 | 13.33° C | 93% | 1014.3 hPa | 3.3 mm | - | - | - |
| 1777948169 | 13.33° C | 92% | 1014.1 hPa | 2.79 mm | - | - | - |
| 1777947864 | 13.33° C | 92% | 1014 hPa | 2.29 mm | - | - | - |
| 1777947567 | 13.33° C | 92% | 1013.6 hPa | 1.52 mm | - | - | - |
| 1777946966 | 13.33° C | 92% | 1013.8 hPa | 1.02 mm | - | - | - |
| 1777946668 | 13.89° C | 92% | 1013.9 hPa | 1.02 mm | - | - | - |
| 1777946364 | 13.33° C | 91% | 1014.2 hPa | 0.76 mm | - | - | - |
| 1777946067 | 13.33° C | 91% | 1014.5 hPa | 0.51 mm | - | - | - |
| 1777945770 | 13.33° C | 92% | 1014.5 hPa | 0.51 mm | - | - | - |
| 1777945466 | 13.33° C | 92% | 1014.6 hPa | 0.25 mm | - | - | - |
| 1777945169 | 13.33° C | 92% | 1014.6 hPa | 0 mm | - | - | - |
| 1777944865 | 13.89° C | 92% | 1014.3 hPa | 0 mm | - | - | - |
| 1777944568 | 13.89° C | 91% | 1014.1 hPa | 0 mm | - | - | - |
| 1777944264 | 13.89° C | 91% | 1014.8 hPa | 0 mm | - | - | - |
| 1777943966 | 13.89° C | 91% | 1014.7 hPa | 0 mm | - | - | - |
| 1777943365 | 13.89° C | 90% | 1015 hPa | 0 mm | - | - | - |
| 1777943068 | 13.89° C | 90% | 1014.8 hPa | 0 mm | - | - | - |
| 1777942466 | 14.44° C | 88% | 1014.9 hPa | 0 mm | - | - | - |
| 1777942170 | 14.44° C | 87% | 1014.6 hPa | 0 mm | - | - | - |
| 1777941865 | 14.44° C | 86% | 1014.8 hPa | 0 mm | - | - | - |
| 1777941568 | 14.44° C | 83% | 1015.1 hPa | 0 mm | - | - | - |
| 1777941264 | 15° C | 84% | 1015.2 hPa | 0 mm | - | - | - |
* Rain since midnight (hover to see other rain measurements)
** Current wind speed in m/s (hover to see current wind gust speed)